TimePST,TemperatureF,Dew PointF,Humidity,Sea Level PressureIn,VisibilityMPH,Wind Direction,Wind SpeedMPH,Gust SpeedMPH,PrecipitationIn,Events,Conditions,WindDirDegrees,DateUTC
12:55 AM,55.0,28.0,35,30.18,7.0,ENE,10.4,-,N/A,,Clear,70,2013-03-02 08:55:00
1:55 AM,54.0,28.0,37,30.17,7.0,East,6.9,-,N/A,,Clear,80,2013-03-02 09:55:00
2:55 AM,54.0,27.0,35,30.16,7.0,ENE,9.2,-,N/A,,Clear,70,2013-03-02 10:55:00
3:55 AM,55.9,26.1,32,30.16,7.0,East,8.1,-,N/A,,Clear,80,2013-03-02 11:55:00
4:55 AM,57.0,26.1,30,30.16,7.0,East,9.2,-,N/A,,Clear,80,2013-03-02 12:55:00
5:55 AM,55.0,26.1,33,30.16,7.0,East,3.5,-,N/A,,Clear,80,2013-03-02 13:55:00
6:55 AM,57.9,28.0,32,30.17,7.0,East,8.1,-,N/A,,Partly Cloudy,80,2013-03-02 14:55:00
7:55 AM,70.0,28.9,22,30.18,7.0,East,3.5,-,N/A,,Clear,90,2013-03-02 15:55:00
8:55 AM,77.0,28.9,17,30.18,7.0,East,3.5,-,N/A,,Clear,80,2013-03-02 16:55:00
9:55 AM,81.0,26.1,13,30.18,7.0,Variable,4.6,-,N/A,,Partly Cloudy,0,2013-03-02 17:55:00
10:55 AM,82.9,21.9,11,30.17,7.0,West,3.5,-,N/A,,Partly Cloudy,270,2013-03-02 18:55:00
11:55 AM,82.9,24.1,12,30.15,7.0,West,9.2,-,N/A,,Partly Cloudy,270,2013-03-02 19:55:00
12:55 PM,82.0,21.9,11,30.12,7.0,West,12.7,-,N/A,,Partly Cloudy,280,2013-03-02 20:55:00
1:55 PM,81.0,21.9,11,30.11,7.0,WNW,9.2,-,N/A,,Scattered Clouds,290,2013-03-02 21:55:00
2:55 PM,81.0,25.0,13,30.09,7.0,NW,8.1,-,N/A,,Scattered Clouds,320,2013-03-02 22:55:00
3:55 PM,75.9,21.0,13,30.09,7.0,WNW,8.1,-,N/A,,Scattered Clouds,300,2013-03-02 23:55:00
4:55 PM,73.9,25.0,16,30.09,7.0,West,4.6,-,N/A,,Mostly Cloudy,280,2013-03-03 00:55:00
5:55 PM,66.0,26.1,22,30.09,7.0,NW,3.5,-,N/A,,Scattered Clouds,320,2013-03-03 01:55:00
6:55 PM,55.9,28.9,36,30.11,7.0,Calm,Calm,-,N/A,,Scattered Clouds,0,2013-03-03 02:55:00
7:55 PM,54.0,30.0,40,30.11,7.0,ENE,5.8,-,N/A,,Scattered Clouds,70,2013-03-03 03:55:00
8:55 PM,52.0,30.0,43,30.12,7.0,ENE,8.1,-,N/A,,Scattered Clouds,70,2013-03-03 04:55:00
9:55 PM,55.0,27.0,34,30.11,7.0,East,8.1,-,N/A,,Scattered Clouds,80,2013-03-03 05:55:00
10:55 PM,55.0,30.9,40,30.10,7.0,East,8.1,-,N/A,,Scattered Clouds,80,2013-03-03 06:55:00
11:55 PM,54.0,30.9,41,30.10,7.0,ENE,3.5,-,N/A,,Scattered Clouds,70,2013-03-03 07:55:00